Date String (YYYY-MM-DD hh:mm:ss) UTC,Instrument flags,Ambient pressure (hPa),Sample flow (lpm),Bypass flow (lpm),Sample temperature (°C),Ambient temperature (°C),ASC tube jacket temperature (°C),LED temperature (°C),Box temperature (°C),Sample RH (%),Span deviation,Mass concentration (μg/m³),Mass concentration (μg/m³),Mass concentration (μg/m³)
DateTimeUTC,F1_M11,P_M11,Q1_M11,Q2_M11,T1_M11,T2_M11,T3_M11,T4_M11,T5_M11,U1_M11,ZSPAN_M11,X0_M11,X2_M11,X1_M11
2022-09-11 06:00:00,,0835.4,5.00,0.00,28.6,27.1,00.0,37.3,30.4,27.6,0000.0,0007.66,0005.78,0005.55
2022-09-11 06:01:00,,0835.3,5.00,0.00,28.6,27.1,00.0,37.3,30.4,27.6,0000.0,0007.61,0005.73,0005.53
2022-09-11 06:02:00,,0835.4,5.01,0.00,28.6,27.1,00.0,37.3,30.4,27.5,0000.0,0007.61,0005.74,0005.52
2022-09-11 06:03:00,,0835.4,5.00,0.00,28.6,27.1,00.0,37.3,30.4,27.5,0000.0,0007.56,0005.74,0005.52
2022-09-11 06:04:00,,0835.4,5.00,0.00,28.6,27.1,00.0,37.3,30.5,27.5,0000.0,0007.53,0005.71,0005.50
2022-09-11 06:05:00,,0835.3,5.00,0.00,28.6,27.1,00.0,37.3,30.5,27.5,0000.0,0007.51,0005.71,0005.50
2022-09-11 06:06:00,,0835.3,5.01,0.00,28.6,27.1,00.0,37.3,30.5,27.6,0000.0,0007.57,0005.76,0005.54
2022-09-11 06:07:00,,0835.3,5.00,0.00,28.6,27.1,00.0,37.3,30.5,27.9,0000.0,0007.60,0005.79,0005.57
2022-09-11 06:08:00,,0835.4,5.00,0.00,28.6,27.1,00.0,37.3,30.5,28.3,0000.0,0007.69,0005.84,0005.61
2022-09-11 06:09:00,,0835.4,5.01,0.00,28.6,27.1,00.0,37.3,30.5,27.8,0000.0,0007.69,0005.87,0005.65
2022-09-11 06:10:00,,0835.4,5.00,0.00,28.6,27.1,00.0,37.3,30.5,27.7,0000.0,0007.69,0005.89,0005.68
2022-09-11 06:11:00,,0835.4,5.00,0.00,28.6,27.1,00.0,37.3,30.5,27.7,0000.0,0007.73,0005.93,0005.72
2022-09-11 06:12:00,,0835.3,5.00,0.00,28.6,27.1,00.0,37.3,30.5,27.6,0000.0,0007.75,0005.97,0005.77
2022-09-11 06:13:00,,0835.4,5.00,0.00,28.6,27.1,00.0,37.3,30.5,27.6,0000.0,0007.70,0005.98,0005.80
2022-09-11 06:14:00,,0835.4,5.00,0.00,28.6,27.1,00.0,37.3,30.5,27.5,0000.0,0007.74,0006.00,0005.84
2022-09-11 06:15:00,,0835.4,5.00,0.00,28.6,27.1,00.0,37.3,30.5,27.5,0000.0,0007.96,0006.07,0005.88
2022-09-11 06:16:00,,0835.3,5.00,0.00,28.6,27.1,00.0,37.4,30.5,27.6,0000.0,0008.03,0006.11,0005.91
2022-09-11 06:17:00,,0835.4,5.00,0.00,28.6,27.1,00.0,37.3,30.5,27.6,0000.0,0007.99,0006.11,0005.93
2022-09-11 06:18:00,,0835.4,5.00,0.00,28.6,27.1,00.0,37.3,30.5,27.5,0000.0,0007.98,0006.13,0005.95
2022-09-11 06:19:00,,0835.4,5.00,0.00,28.6,27.1,00.0,37.4,30.5,27.5,0000.0,0008.04,0006.17,0005.97
2022-09-11 06:20:00,,0835.4,5.00,0.00,28.6,27.1,00.0,37.4,30.5,27.5,0000.0,0008.04,0006.19,0006.00
2022-09-11 06:21:00,,0835.4,5.00,0.00,28.6,27.2,00.0,37.4,30.5,27.4,0000.0,0008.07,0006.22,0006.02
2022-09-11 06:22:00,,0835.4,5.00,0.00,28.6,27.2,00.0,37.4,30.5,27.5,0000.0,0008.09,0006.24,0006.03
2022-09-11 06:23:00,,0835.4,5.01,0.00,28.6,27.2,00.0,37.4,30.5,27.5,0000.0,0008.14,0006.27,0006.05
2022-09-11 06:24:00,,0835.4,5.00,0.00,28.7,27.2,00.0,37.4,30.5,27.4,0000.0,0008.24,0006.30,0006.06
2022-09-11 06:25:00,,0835.3,5.00,0.00,28.7,27.2,00.0,37.4,30.5,27.4,0000.0,0008.22,0006.31,0006.07
2022-09-11 06:26:00,,0835.3,5.01,0.00,28.7,27.2,00.0,37.4,30.5,27.5,0000.0,0008.09,0006.31,0006.08
2022-09-11 06:27:00,,0835.3,5.00,0.00,28.7,27.2,00.0,37.4,30.5,27.5,0000.0,0008.15,0006.35,0006.11
2022-09-11 06:28:00,,0835.2,5.00,0.00,28.7,27.2,00.0,37.4,30.5,27.5,0000.0,0008.27,0006.39,0006.13
2022-09-11 06:29:00,,0835.3,5.00,0.00,28.7,27.2,00.0,37.4,30.5,27.5,0000.0,0008.33,0006.42,0006.15
2022-09-11 06:30:00,,0835.3,5.01,0.00,28.7,27.2,00.0,37.4,30.5,27.4,0000.0,0008.29,0006.41,0006.17
2022-09-11 06:31:00,,0835.3,5.00,0.00,28.7,27.2,00.0,37.4,30.5,27.5,0000.0,0008.32,0006.45,0006.20
2022-09-11 06:32:00,,0835.2,5.00,0.00,28.7,27.2,00.0,37.4,30.5,27.5,0000.0,0008.31,0006.44,0006.21
2022-09-11 06:33:00,,0835.3,5.00,0.00,28.7,27.2,00.0,37.4,30.5,27.6,0000.0,0008.34,0006.47,0006.23
2022-09-11 06:34:00,,0835.2,4.99,0.00,28.7,27.2,00.0,37.4,30.6,27.6,0000.0,0008.37,0006.48,0006.24
2022-09-11 06:35:00,,0835.2,5.00,0.00,28.7,27.2,00.0,37.4,30.5,27.5,-000.1,0008.38,0006.49,0006.25
2022-09-11 06:36:00,,0835.2,5.01,0.00,28.7,27.2,00.0,37.4,30.5,27.5,-000.1,0008.36,0006.50,0006.26
2022-09-11 06:37:00,,0835.2,5.00,0.00,28.7,27.2,00.0,37.4,30.5,27.5,0000.0,0008.33,0006.50,0006.27
2022-09-11 06:38:00,,0835.2,5.00,0.00,28.7,27.2,00.0,37.4,30.5,27.8,0000.0,0008.29,0006.49,0006.27
2022-09-11 06:39:00,,0835.2,4.99,0.00,28.7,27.2,00.0,37.4,30.5,28.2,0000.0,0008.29,0006.52,0006.29
2022-09-11 06:40:00,,0835.2,5.01,0.00,28.7,27.2,00.0,37.4,30.5,27.6,-000.6,0008.32,0006.55,0006.32
2022-09-11 06:41:00,,0835.2,5.00,0.00,28.7,27.2,00.0,37.4,30.6,27.5,-001.0,0008.33,0006.58,0006.35
2022-09-11 06:42:00,,0835.2,5.01,0.00,28.7,27.2,00.0,37.4,30.6,27.4,0000.0,0008.35,0006.58,0006.36
2022-09-11 06:43:00,,0835.2,4.99,0.00,28.7,27.2,00.0,37.4,30.5,27.4,0000.0,0008.40,0006.61,0006.37
2022-09-11 06:44:00,,0835.1,5.00,0.00,28.7,27.2,00.0,37.4,30.5,27.3,0000.0,0008.41,0006.62,0006.39
2022-09-11 06:45:00,,0835.1,5.00,0.00,28.7,27.2,00.0,37.4,30.6,27.3,0000.0,0008.44,0006.66,0006.42
2022-09-11 06:46:00,,0835.2,5.00,0.00,28.7,27.2,00.0,37.4,30.6,27.3,0000.0,0008.44,0006.67,0006.44
2022-09-11 06:47:00,,0835.2,5.00,0.00,28.7,27.2,00.0,37.4,30.5,27.4,0000.0,0008.48,0006.70,0006.46
2022-09-11 06:48:00,,0835.2,5.01,0.00,28.7,27.2,00.0,37.4,30.5,27.3,0000.0,0008.53,0006.73,0006.49
2022-09-11 06:49:00,,0835.2,5.01,0.00,28.7,27.2,00.0,37.4,30.6,27.3,0000.0,0008.64,0006.77,0006.51
2022-09-11 06:50:00,,0835.2,5.00,0.00,28.7,27.2,00.0,37.4,30.6,27.2,-000.5,0008.61,0006.76,0006.52
2022-09-11 06:51:00,,0835.1,5.00,0.00,28.7,27.2,00.0,37.4,30.6,27.2,-000.8,0008.71,0006.81,0006.53
2022-09-11 06:52:00,,0835.1,5.00,0.00,28.7,27.2,00.0,37.4,30.5,27.2,-000.6,0009.07,0006.84,0006.53
2022-09-11 06:53:00,,0835.1,5.00,0.00,28.7,27.2,00.0,37.4,30.5,27.3,-000.9,0009.20,0006.86,0006.54
2022-09-11 06:54:00,,0835.1,5.01,0.00,28.7,27.2,00.0,37.4,30.6,27.3,-001.5,0009.27,0006.91,0006.57
2022-09-11 06:55:00,,0835.1,5.00,0.00,28.7,27.2,00.0,37.5,30.6,27.3,-001.7,0009.29,0006.92,0006.57
2022-09-11 06:56:00,,0835.0,5.00,0.00,28.7,27.2,00.0,37.5,30.6,27.3,-000.9,0009.27,0006.90,0006.56
2022-09-11 06:57:00,,0835.0,5.00,0.00,28.7,27.2,00.0,37.5,30.6,27.3,-000.5,0009.28,0006.91,0006.56
2022-09-11 06:58:00,,0835.0,4.99,0.00,28.7,27.2,00.0,37.5,30.6,27.3,0000.0,0009.27,0006.91,0006.57
2022-09-11 06:59:00,,0835.1,5.00,0.00,28.7,27.3,00.0,37.5,30.6,27.2,0000.0,0009.27,0006.91,0006.56
